Year,Month,Day,Hour,Minute,Value (Times are PST for barometer in hPa)
2016,03,01,00,00,1010.90
2016,03,01,00,01,1010.80
2016,03,01,00,02,1010.80
2016,03,01,00,03,1010.90
2016,03,01,00,04,1010.90
2016,03,01,00,05,1011.10
2016,03,01,00,06,1011.10
2016,03,01,00,07,1011.20
2016,03,01,00,09,1011.30
2016,03,01,00,10,1011.30
2016,03,01,00,12,1011.10
2016,03,01,00,13,1011.10
2016,03,01,00,14,1011.00
2016,03,01,00,16,1011.00
2016,03,01,00,17,1011.00
2016,03,01,00,18,1011.10
2016,03,01,00,19,1011.00
2016,03,01,00,21,1010.90
2016,03,01,00,22,1010.90
2016,03,01,00,23,1010.90
2016,03,01,00,24,1010.80
2016,03,01,00,26,1010.80
2016,03,01,00,27,1010.80
2016,03,01,00,28,1010.70
2016,03,01,00,29,1010.70
2016,03,01,00,31,1010.70
2016,03,01,00,32,1010.70
2016,03,01,00,33,1010.70
2016,03,01,00,34,1010.80
2016,03,01,00,36,1010.80
2016,03,01,00,37,1010.70
2016,03,01,00,38,1010.60
2016,03,01,00,39,1010.60
2016,03,01,00,41,1010.60
2016,03,01,00,42,1010.70
2016,03,01,00,43,1010.70
2016,03,01,00,44,1010.60
2016,03,01,00,46,1010.60
2016,03,01,00,47,1010.60
2016,03,01,00,48,1010.60
2016,03,01,00,49,1010.50
2016,03,01,00,51,1010.50
2016,03,01,00,52,1010.50
2016,03,01,00,53,1010.50
2016,03,01,00,54,1010.40
2016,03,01,00,56,1010.30
2016,03,01,00,57,1010.30
2016,03,01,00,58,1010.20
2016,03,01,00,59,1010.10
2016,03,01,01,01,1010.10
2016,03,01,01,02,1010.10
2016,03,01,01,03,1010.10
2016,03,01,01,04,1010.10
2016,03,01,01,06,1010.10
2016,03,01,01,07,1010.00
2016,03,01,01,08,1010.00
2016,03,01,01,09,1010.00
2016,03,01,01,11,1010.00
2016,03,01,01,12,1009.90
2016,03,01,01,13,1009.90
2016,03,01,01,14,1009.80
2016,03,01,01,16,1009.80
2016,03,01,01,17,1009.80
2016,03,01,01,18,1009.70
2016,03,01,01,19,1009.60
2016,03,01,01,21,1009.60
2016,03,01,01,22,1009.60
2016,03,01,01,23,1009.60
2016,03,01,01,24,1009.60
2016,03,01,01,25,1009.60
2016,03,01,01,26,1009.50
2016,03,01,01,27,1009.50
2016,03,01,01,28,1009.50
2016,03,01,01,29,1009.50
2016,03,01,01,30,1009.60
2016,03,01,01,31,1009.60
2016,03,01,01,32,1009.60
2016,03,01,01,33,1009.50
2016,03,01,01,34,1009.60
2016,03,01,01,36,1009.50
2016,03,01,01,37,1009.60
2016,03,01,01,38,1009.50
2016,03,01,01,39,1009.40
2016,03,01,01,40,1009.40
2016,03,01,01,41,1009.40
2016,03,01,01,42,1009.30
2016,03,01,01,43,1009.30
2016,03,01,01,44,1009.20
2016,03,01,01,45,1009.10
2016,03,01,01,46,1009.20
2016,03,01,01,47,1009.10
2016,03,01,01,48,1009.00
2016,03,01,01,49,1009.00
2016,03,01,01,50,1008.90
2016,03,01,01,51,1008.90
2016,03,01,01,52,1008.90
2016,03,01,01,53,1008.90
2016,03,01,01,54,1008.90
2016,03,01,01,55,1008.90
2016,03,01,01,56,1009.00
2016,03,01,01,57,1009.00
2016,03,01,01,58,1009.00
2016,03,01,01,59,1009.00
2016,03,01,02,00,1009.00
2016,03,01,02,01,1008.90
2016,03,01,02,02,1008.80
2016,03,01,02,03,1008.60
2016,03,01,02,04,1008.60
2016,03,01,02,05,1008.60
2016,03,01,02,06,1008.60
2016,03,01,02,07,1008.60
2016,03,01,02,08,1008.60
2016,03,01,02,09,1008.50
2016,03,01,02,10,1008.50
2016,03,01,02,11,1008.50
2016,03,01,02,12,1008.50
2016,03,01,02,13,1008.50
2016,03,01,02,14,1008.50
2016,03,01,02,15,1008.50
2016,03,01,02,16,1008.50
2016,03,01,02,17,1008.50
2016,03,01,02,18,1008.50
2016,03,01,02,19,1008.50
2016,03,01,02,20,1008.50
2016,03,01,02,21,1008.50
2016,03,01,02,22,1008.30
2016,03,01,02,23,1008.30
2016,03,01,02,24,1008.10
2016,03,01,02,25,1008.00
2016,03,01,02,26,1008.00
2016,03,01,02,27,1008.00
2016,03,01,02,28,1008.00
2016,03,01,02,29,1008.00
2016,03,01,02,30,1008.00
2016,03,01,02,31,1008.00
2016,03,01,02,32,1008.00
2016,03,01,02,33,1008.00
2016,03,01,02,34,1008.00
2016,03,01,02,35,1008.00
2016,03,01,02,36,1008.00
2016,03,01,02,37,1008.00
2016,03,01,02,38,1008.00
2016,03,01,02,39,1008.00
2016,03,01,02,40,1007.90
2016,03,01,02,41,1008.00
2016,03,01,02,42,1008.00
2016,03,01,02,43,1008.00
2016,03,01,02,44,1007.90
2016,03,01,02,45,1007.80
2016,03,01,02,46,1007.80
2016,03,01,02,47,1007.70
2016,03,01,02,48,1007.70
2016,03,01,02,49,1007.70
2016,03,01,02,50,1007.60
2016,03,01,02,51,1007.60
2016,03,01,02,52,1007.60
2016,03,01,02,54,1007.60
2016,03,01,02,56,1007.50
2016,03,01,02,57,1007.50
2016,03,01,02,58,1007.50
2016,03,01,02,59,1007.50
2016,03,01,03,01,1007.50
2016,03,01,03,02,1007.50
2016,03,01,03,03,1007.50
2016,03,01,03,04,1007.50
2016,03,01,03,06,1007.40
2016,03,01,03,07,1007.40
2016,03,01,03,08,1007.30
2016,03,01,03,09,1007.30
2016,03,01,03,11,1007.10
2016,03,01,03,12,1007.20
2016,03,01,03,13,1007.20
2016,03,01,03,14,1007.10
2016,03,01,03,16,1007.10
2016,03,01,03,17,1007.10
2016,03,01,03,18,1007.00
2016,03,01,03,19,1007.00
2016,03,01,03,21,1007.00
2016,03,01,03,22,1006.90
2016,03,01,03,23,1006.80
2016,03,01,03,24,1006.80
2016,03,01,03,26,1006.70
2016,03,01,03,27,1006.80
2016,03,01,03,28,1006.80
2016,03,01,03,29,1006.80
2016,03,01,03,31,1006.70
2016,03,01,03,32,1006.60
2016,03,01,03,33,1006.60
2016,03,01,03,34,1006.60
2016,03,01,03,36,1006.50
2016,03,01,03,37,1006.50
2016,03,01,03,38,1006.50
2016,03,01,03,39,1006.50
2016,03,01,03,41,1006.40
2016,03,01,03,42,1006.40
2016,03,01,03,43,1006.40
2016,03,01,03,44,1006.50
2016,03,01,03,46,1006.40
2016,03,01,03,47,1006.40
2016,03,01,03,48,1006.40
2016,03,01,03,49,1006.40
2016,03,01,03,51,1006.40
2016,03,01,03,52,1006.30
2016,03,01,03,53,1006.40
2016,03,01,03,54,1006.30
2016,03,01,03,56,1006.10
2016,03,01,03,57,1006.00
2016,03,01,03,58,1006.10
2016,03,01,03,59,1006.00
2016,03,01,04,01,1006.00
2016,03,01,04,02,1006.00
2016,03,01,04,03,1006.00
2016,03,01,04,04,1006.10
2016,03,01,04,06,1006.10
2016,03,01,04,07,1006.20
2016,03,01,04,08,1006.10
2016,03,01,04,09,1006.10
2016,03,01,04,10,1006.00
2016,03,01,04,11,1006.00
2016,03,01,04,12,1006.00
2016,03,01,04,13,1006.00
2016,03,01,04,14,1006.00
2016,03,01,04,15,1005.90
2016,03,01,04,16,1005.90
2016,03,01,04,17,1005.90
2016,03,01,04,18,1005.90
2016,03,01,04,19,1005.90
2016,03,01,04,20,1005.90
2016,03,01,04,21,1005.90
2016,03,01,04,22,1005.70
2016,03,01,04,23,1005.80
2016,03,01,04,24,1005.70
2016,03,01,04,25,1005.70
2016,03,01,04,26,1005.70
2016,03,01,04,27,1005.70
2016,03,01,04,28,1005.60
2016,03,01,04,29,1005.60
2016,03,01,04,30,1005.50
2016,03,01,04,31,1005.50
2016,03,01,04,32,1005.40
2016,03,01,04,33,1005.40
2016,03,01,04,34,1005.40
2016,03,01,04,35,1005.40
2016,03,01,04,36,1005.40
2016,03,01,04,37,1005.40
2016,03,01,04,38,1005.40
2016,03,01,04,39,1005.40
2016,03,01,04,40,1005.40
2016,03,01,04,41,1005.40
2016,03,01,04,42,1005.40
2016,03,01,04,43,1005.30
2016,03,01,04,44,1005.20
2016,03,01,04,45,1005.20
2016,03,01,04,46,1005.10
2016,03,01,04,47,1005.10
2016,03,01,04,48,1005.00
2016,03,01,04,49,1005.20
2016,03,01,04,50,1005.10
2016,03,01,04,51,1005.00
2016,03,01,04,52,1005.00
2016,03,01,04,53,1004.90
2016,03,01,04,54,1004.90
2016,03,01,04,55,1004.90
2016,03,01,04,56,1004.80
2016,03,01,04,57,1004.80
2016,03,01,04,58,1004.70
2016,03,01,04,59,1004.70
2016,03,01,05,00,1004.70
2016,03,01,05,01,1004.80
2016,03,01,05,02,1004.60
2016,03,01,05,03,1004.40
2016,03,01,05,04,1004.40
2016,03,01,05,05,1004.40
2016,03,01,05,06,1004.40
2016,03,01,05,07,1004.40
2016,03,01,05,08,1004.40
2016,03,01,05,09,1004.30
2016,03,01,05,10,1004.30
2016,03,01,05,11,1004.30
2016,03,01,05,12,1004.30
2016,03,01,05,13,1004.20
2016,03,01,05,14,1004.00
2016,03,01,05,15,1004.00
2016,03,01,06,29,1002.70
2016,03,01,06,31,1002.60
2016,03,01,06,32,1002.50
2016,03,01,06,33,1002.40
2016,03,01,06,34,1002.30
2016,03,01,06,36,1002.30
2016,03,01,06,37,1002.30
2016,03,01,06,38,1002.30
2016,03,01,07,29,1000.40
2016,03,01,07,31,1000.50
2016,03,01,07,32,1000.40
2016,03,01,07,33,1000.30
2016,03,01,07,34,1000.20
2016,03,01,07,36,1000.20
2016,03,01,07,37,1000.20
2016,03,01,07,38,1000.20
2016,03,01,07,39,1000.20
2016,03,01,07,41,1000.10
2016,03,01,07,42,1000.10
2016,03,01,07,43,1000.10
2016,03,01,07,44,999.90
2016,03,01,07,46,999.80
2016,03,01,07,47,999.80
2016,03,01,07,48,999.70
2016,03,01,09,29,997.10
2016,03,01,09,31,996.70
2016,03,01,09,32,996.60
2016,03,01,09,33,996.60
2016,03,01,09,34,996.70
2016,03,01,09,36,996.50
2016,03,01,09,37,996.50
2016,03,01,09,38,996.50
2016,03,01,09,39,996.30
2016,03,01,09,41,996.10
2016,03,01,09,42,996.10
2016,03,01,09,43,996.00
2016,03,01,09,44,996.10
2016,03,01,09,46,996.00
2016,03,01,09,47,996.00
2016,03,01,09,48,996.00
2016,03,01,09,49,996.00
2016,03,01,09,51,996.00
2016,03,01,09,52,996.00
2016,03,01,09,53,995.80
2016,03,01,09,54,995.90
2016,03,01,09,56,995.70
2016,03,01,09,57,995.60
2016,03,01,09,58,995.60
2016,03,01,09,59,995.60
2016,03,01,10,01,995.60
2016,03,01,10,02,995.50
2016,03,01,10,03,995.80
2016,03,01,10,04,995.70
2016,03,01,10,06,995.60
2016,03,01,10,07,995.60
2016,03,01,10,08,995.60
2016,03,01,10,09,995.60
2016,03,01,10,11,995.60
2016,03,01,10,12,995.60
2016,03,01,10,13,995.60
2016,03,01,10,14,995.60
2016,03,01,10,15,995.60
2016,03,01,10,16,995.50
2016,03,01,10,17,995.50
2016,03,01,10,18,995.50
2016,03,01,10,19,995.40
2016,03,01,10,20,995.20
2016,03,01,10,21,995.00
2016,03,01,10,22,995.00
2016,03,01,10,23,995.00
2016,03,01,10,24,995.00
2016,03,01,10,25,995.00
2016,03,01,10,26,995.00
2016,03,01,10,27,995.00
2016,03,01,10,28,994.90
2016,03,01,10,29,994.90
2016,03,01,10,30,994.50
2016,03,01,10,31,994.50
2016,03,01,10,32,994.50
2016,03,01,10,33,994.50
2016,03,01,10,34,994.60
2016,03,01,10,35,994.70
2016,03,01,10,36,994.70
2016,03,01,10,37,994.80
2016,03,01,10,38,994.50
2016,03,01,10,39,994.60
2016,03,01,10,40,994.50
2016,03,01,10,41,994.60
2016,03,01,10,42,994.70
2016,03,01,10,43,994.60
2016,03,01,10,44,994.60
2016,03,01,10,45,994.50
2016,03,01,10,46,994.50
2016,03,01,10,47,994.50
2016,03,01,10,48,994.50
2016,03,01,11,29,993.40
2016,03,01,11,31,993.40
2016,03,01,11,32,993.40
2016,03,01,11,33,993.40
2016,03,01,11,34,993.40
2016,03,01,11,36,993.20
2016,03,01,11,37,992.90
2016,03,01,11,38,992.90
2016,03,01,11,39,993.20
2016,03,01,11,41,993.30
2016,03,01,11,42,993.00
2016,03,01,11,43,993.30
2016,03,01,11,44,993.10
2016,03,01,11,46,993.00
2016,03,01,11,47,993.00
2016,03,01,11,48,993.00
2016,03,01,11,49,992.90
2016,03,01,11,51,992.90
2016,03,01,11,52,992.90
2016,03,01,11,53,992.80
2016,03,01,11,54,992.50
2016,03,01,11,56,992.70
2016,03,01,11,57,992.50
2016,03,01,11,58,992.30
2016,03,01,11,59,992.40
2016,03,01,12,01,992.20
2016,03,01,12,02,992.50
2016,03,01,12,03,992.50
2016,03,01,12,04,992.40
2016,03,01,12,06,992.20
2016,03,01,12,07,992.40
2016,03,01,12,08,992.50
2016,03,01,12,09,992.60
2016,03,01,12,11,992.40
2016,03,01,12,12,992.20
2016,03,01,12,13,992.40
2016,03,01,12,14,992.40
2016,03,01,12,15,992.30
2016,03,01,12,16,992.40
2016,03,01,12,17,992.20
2016,03,01,12,18,992.00
2016,03,01,12,19,992.40
2016,03,01,12,20,992.30
2016,03,01,12,21,992.40
2016,03,01,12,22,992.40
2016,03,01,12,23,992.30
2016,03,01,12,24,992.00
2016,03,01,12,25,991.90
2016,03,01,12,26,992.00
2016,03,01,12,27,992.00
2016,03,01,12,28,992.30
2016,03,01,12,29,991.80
2016,03,01,12,30,991.90
2016,03,01,12,31,992.40
2016,03,01,12,32,992.40
2016,03,01,12,33,992.10
2016,03,01,12,34,992.10
2016,03,01,12,35,992.20
2016,03,01,12,36,992.10
2016,03,01,12,37,992.30
2016,03,01,12,38,991.90
2016,03,01,12,39,991.90
2016,03,01,12,40,992.00
2016,03,01,12,41,992.00
2016,03,01,12,42,992.10
2016,03,01,12,43,991.90
2016,03,01,12,44,991.80
2016,03,01,12,45,992.00
2016,03,01,12,46,991.70
2016,03,01,12,47,991.80
2016,03,01,12,48,991.80
2016,03,01,12,49,991.80
2016,03,01,12,50,992.10
2016,03,01,12,51,992.00
2016,03,01,12,52,992.00
2016,03,01,12,53,991.90
2016,03,01,12,54,992.10
2016,03,01,12,55,992.00
2016,03,01,12,56,992.40
2016,03,01,12,57,992.30
2016,03,01,12,58,992.30
2016,03,01,12,59,992.20
2016,03,01,13,00,992.20
2016,03,01,13,01,992.20
2016,03,01,13,02,992.30
2016,03,01,13,03,992.40
2016,03,01,13,04,992.30
2016,03,01,13,05,992.20
2016,03,01,13,06,992.00
2016,03,01,13,07,991.90
2016,03,01,13,08,992.20
2016,03,01,13,09,992.00
2016,03,01,13,10,992.00
2016,03,01,13,11,992.00
2016,03,01,13,12,991.80
2016,03,01,13,13,991.80
2016,03,01,13,14,991.90
2016,03,01,13,15,991.90
2016,03,01,13,16,991.80
2016,03,01,13,17,991.90
2016,03,01,13,18,991.90
2016,03,01,13,19,991.50
2016,03,01,13,20,991.80
2016,03,01,13,21,991.80
2016,03,01,13,22,991.50
2016,03,01,13,23,991.40
2016,03,01,13,24,991.50
2016,03,01,13,25,992.10
2016,03,01,13,27,992.40
2016,03,01,13,28,991.80
2016,03,01,13,29,991.90
2016,03,01,13,31,992.80
2016,03,01,13,32,992.50
2016,03,01,13,33,992.30
2016,03,01,13,34,992.20
2016,03,01,13,36,992.40
2016,03,01,13,37,991.80
2016,03,01,13,38,991.80
2016,03,01,13,39,992.40
2016,03,01,13,41,992.40
2016,03,01,13,42,992.40
2016,03,01,13,43,992.10
2016,03,01,13,44,992.40
2016,03,01,13,46,992.40
2016,03,01,13,47,992.40
2016,03,01,13,48,992.40
2016,03,01,13,49,992.40
2016,03,01,13,51,992.60
2016,03,01,13,52,992.70
2016,03,01,13,53,992.70
2016,03,01,13,54,992.60
2016,03,01,13,56,992.40
2016,03,01,13,57,992.80
2016,03,01,13,58,993.00
2016,03,01,13,59,993.00
2016,03,01,14,01,992.90
2016,03,01,14,02,992.90
2016,03,01,14,03,993.10
2016,03,01,14,04,993.30
2016,03,01,14,06,993.50
2016,03,01,14,07,993.40
2016,03,01,14,08,993.40
2016,03,01,14,09,993.40
2016,03,01,14,11,993.40
2016,03,01,14,12,993.40
2016,03,01,14,13,993.40
2016,03,01,14,14,993.40
2016,03,01,14,16,993.40
2016,03,01,14,17,993.60
2016,03,01,14,18,993.60
2016,03,01,14,19,993.90
2016,03,01,14,21,993.90
2016,03,01,14,22,993.90
2016,03,01,14,23,993.80
2016,03,01,14,24,993.90
2016,03,01,14,26,993.90
2016,03,01,14,27,993.90
2016,03,01,14,28,993.80
2016,03,01,14,29,993.70
2016,03,01,14,31,993.70
2016,03,01,14,32,993.70
2016,03,01,14,33,993.70
2016,03,01,14,34,993.60
2016,03,01,14,36,993.40
2016,03,01,14,37,993.00
2016,03,01,14,38,992.90
2016,03,01,14,39,992.50
2016,03,01,14,40,992.50
2016,03,01,14,41,992.70
2016,03,01,14,42,992.90
2016,03,01,14,43,993.00
2016,03,01,14,44,993.20
2016,03,01,14,45,993.40
2016,03,01,14,46,993.50
2016,03,01,14,47,993.60
2016,03,01,14,48,993.80
2016,03,01,14,49,993.90
2016,03,01,14,50,993.90
2016,03,01,14,51,993.90
2016,03,01,14,52,993.90
2016,03,01,14,53,993.90
2016,03,01,14,54,994.00
2016,03,01,14,55,994.10
2016,03,01,14,56,994.10
2016,03,01,14,57,994.30
2016,03,01,14,58,994.30
2016,03,01,14,59,994.40
2016,03,01,15,00,994.50
2016,03,01,15,01,994.50
2016,03,01,15,02,994.50
2016,03,01,15,03,994.50
2016,03,01,15,04,994.50
2016,03,01,15,05,994.60
2016,03,01,15,06,994.60
2016,03,01,15,07,994.70
2016,03,01,15,08,994.90
2016,03,01,15,09,995.00
2016,03,01,15,10,995.00
2016,03,01,15,11,995.00
2016,03,01,15,12,995.00
2016,03,01,15,13,995.00
2016,03,01,15,14,995.00
2016,03,01,15,15,995.00
2016,03,01,15,16,995.10
2016,03,01,15,17,995.20
2016,03,01,15,18,995.40
2016,03,01,15,19,995.50
2016,03,01,15,20,995.50
2016,03,01,15,21,995.50
2016,03,01,15,22,995.50
2016,03,01,15,23,995.50
2016,03,01,15,24,995.60
2016,03,01,15,25,995.70
2016,03,01,15,26,995.80
2016,03,01,15,27,995.90
2016,03,01,15,28,995.90
2016,03,01,15,29,996.00
2016,03,01,15,30,996.00
2016,03,01,15,31,996.00
2016,03,01,15,32,996.00
2016,03,01,15,33,996.00
2016,03,01,15,34,996.00
2016,03,01,15,35,996.00
2016,03,01,15,36,996.00
2016,03,01,15,37,996.10
2016,03,01,15,38,996.20
2016,03,01,15,39,996.20
2016,03,01,15,40,996.50
2016,03,01,15,41,996.50
2016,03,01,15,42,996.50
2016,03,01,15,43,996.50
2016,03,01,15,44,996.60
2016,03,01,15,45,996.60
2016,03,01,15,46,996.60
2016,03,01,15,47,996.60
2016,03,01,15,48,996.60
2016,03,01,15,49,996.50
2016,03,01,15,50,996.60
2016,03,01,15,51,996.50
2016,03,01,15,52,996.60
2016,03,01,15,53,996.50
2016,03,01,15,54,996.50
2016,03,01,15,55,996.50
2016,03,01,15,56,996.50
2016,03,01,15,57,996.50
2016,03,01,15,58,996.50
2016,03,01,15,59,996.50
2016,03,01,16,00,996.60
2016,03,01,16,01,996.70
2016,03,01,16,03,996.70
2016,03,01,16,04,996.90
2016,03,01,16,06,997.00
2016,03,01,16,07,996.90
2016,03,01,16,08,996.90
2016,03,01,16,09,997.10
2016,03,01,16,11,997.10
2016,03,01,16,12,997.10
2016,03,01,16,13,997.10
2016,03,01,16,14,997.20
2016,03,01,16,16,997.10
2016,03,01,16,17,997.10
2016,03,01,16,18,997.20
2016,03,01,16,19,997.30
2016,03,01,16,21,997.50
2016,03,01,16,22,997.60
2016,03,01,16,23,997.50
2016,03,01,16,24,997.50
2016,03,01,16,26,997.60
2016,03,01,16,27,997.60
2016,03,01,16,28,997.60
2016,03,01,16,29,997.60
2016,03,01,16,31,997.40
2016,03,01,16,32,997.40
2016,03,01,16,33,997.40
2016,03,01,16,34,997.40
2016,03,01,16,36,997.50
2016,03,01,16,37,997.50
2016,03,01,16,38,997.60
2016,03,01,16,39,997.60
2016,03,01,16,41,997.80
2016,03,01,16,42,997.90
2016,03,01,16,43,997.90
2016,03,01,16,44,997.90
2016,03,01,16,46,997.90
2016,03,01,16,47,998.00
2016,03,01,16,48,998.00
2016,03,01,16,49,998.10
2016,03,01,16,51,998.10
2016,03,01,16,52,998.10
2016,03,01,16,53,998.20
2016,03,01,16,54,998.30
2016,03,01,16,56,998.50
2016,03,01,16,57,998.50
2016,03,01,16,58,998.60
2016,03,01,16,59,998.60
2016,03,01,17,01,998.50
2016,03,01,17,02,998.60
2016,03,01,17,03,998.60
2016,03,01,17,04,998.60
2016,03,01,17,06,998.70
2016,03,01,17,07,998.70
2016,03,01,17,08,998.80
2016,03,01,17,09,998.70
2016,03,01,17,11,998.70
2016,03,01,17,12,998.70
2016,03,01,17,13,998.70
2016,03,01,17,14,998.70
2016,03,01,17,15,998.80
2016,03,01,17,16,998.90
2016,03,01,17,17,998.90
2016,03,01,17,18,998.80
2016,03,01,17,19,998.80
2016,03,01,17,20,998.90
2016,03,01,17,21,998.80
2016,03,01,17,22,998.70
2016,03,01,17,23,998.80
2016,03,01,17,24,998.80
2016,03,01,17,25,998.80
2016,03,01,17,26,998.70
2016,03,01,17,27,998.70
2016,03,01,17,28,998.70
2016,03,01,17,29,998.80
2016,03,01,17,30,998.90
2016,03,01,17,31,998.90
2016,03,01,17,32,999.00
2016,03,01,17,33,999.00
2016,03,01,17,34,999.10
2016,03,01,17,35,999.10
2016,03,01,17,36,999.10
2016,03,01,17,37,999.10
2016,03,01,17,38,999.20
2016,03,01,17,39,999.20
2016,03,01,17,40,999.20
2016,03,01,17,41,999.20
2016,03,01,17,42,999.20
2016,03,01,17,43,999.20
2016,03,01,17,44,999.30
2016,03,01,17,45,999.30
2016,03,01,17,46,999.40
2016,03,01,17,47,999.50
2016,03,01,17,48,999.50
2016,03,01,17,49,999.50
2016,03,01,17,50,999.60
2016,03,01,17,51,999.60
2016,03,01,17,52,999.60
2016,03,01,17,53,999.60
2016,03,01,17,54,999.60
2016,03,01,17,55,999.60
2016,03,01,17,56,999.50
2016,03,01,17,57,999.50
2016,03,01,17,58,999.60
2016,03,01,17,59,999.60
2016,03,01,18,00,999.60
2016,03,01,18,01,999.60
2016,03,01,18,02,999.70
2016,03,01,18,03,999.70
2016,03,01,18,04,999.80
2016,03,01,18,05,999.80
2016,03,01,18,06,999.70
2016,03,01,18,07,999.70
2016,03,01,18,08,999.70
2016,03,01,18,09,999.70
2016,03,01,18,10,999.80
2016,03,01,18,11,999.90
2016,03,01,18,12,1000.00
2016,03,01,18,13,1000.10
2016,03,01,18,14,1000.10
2016,03,01,18,15,1000.10
2016,03,01,18,16,1000.20
2016,03,01,18,17,1000.20
2016,03,01,18,18,1000.20
2016,03,01,18,19,1000.20
2016,03,01,18,20,1000.20
2016,03,01,18,21,1000.20
2016,03,01,18,22,1000.30
2016,03,01,18,23,1000.30
2016,03,01,18,24,1000.40
2016,03,01,18,25,1000.50
2016,03,01,18,26,1000.60
2016,03,01,18,27,1000.70
2016,03,01,18,28,1000.70
2016,03,01,18,29,1000.70
2016,03,01,18,30,1000.70
2016,03,01,18,31,1000.70
2016,03,01,18,32,1000.70
2016,03,01,18,33,1000.80
2016,03,01,18,34,1000.80
2016,03,01,18,36,1000.80
2016,03,01,18,37,1000.80
2016,03,01,18,38,1000.80
2016,03,01,18,39,1000.80
2016,03,01,18,41,1000.90
2016,03,01,18,42,1000.90
2016,03,01,18,43,1000.90
2016,03,01,18,44,1001.00
2016,03,01,18,46,1001.00
2016,03,01,18,47,1001.00
2016,03,01,18,48,1001.00
2016,03,01,18,49,1000.90
2016,03,01,18,51,1000.90
2016,03,01,18,52,1000.90
2016,03,01,18,53,1000.90
2016,03,01,18,54,1000.90
2016,03,01,18,56,1000.90
2016,03,01,18,57,1001.00
2016,03,01,18,58,1001.00
2016,03,01,18,59,1001.00
2016,03,01,19,01,1001.10
2016,03,01,19,02,1001.10
2016,03,01,19,03,1001.00
2016,03,01,19,04,1001.00
2016,03,01,19,06,1001.00
2016,03,01,19,07,1000.90
2016,03,01,19,08,1000.90
2016,03,01,19,09,1000.90
2016,03,01,19,11,1000.90
2016,03,01,19,12,1000.90
2016,03,01,19,13,1000.90
2016,03,01,19,14,1000.90
2016,03,01,19,16,1000.90
2016,03,01,19,17,1000.90
2016,03,01,19,18,1000.80
2016,03,01,19,19,1000.80
2016,03,01,19,21,1000.80
2016,03,01,19,22,1000.80
2016,03,01,19,23,1000.80
2016,03,01,19,24,1000.80
2016,03,01,19,26,1000.80
2016,03,01,19,27,1000.80
2016,03,01,19,28,1000.80
2016,03,01,19,29,1000.90
2016,03,01,19,31,1000.90
2016,03,01,19,32,1000.90
2016,03,01,19,33,1000.90
2016,03,01,19,34,1000.90
2016,03,01,19,36,1000.90
2016,03,01,19,37,1000.90
2016,03,01,19,38,1000.80
2016,03,01,19,39,1000.80
2016,03,01,19,41,1000.70
2016,03,01,19,42,1000.70
2016,03,01,19,43,1000.70
2016,03,01,19,44,1000.70
2016,03,01,19,46,1000.70
2016,03,01,19,47,1000.70
2016,03,01,19,48,1000.70
2016,03,01,19,49,1000.80
2016,03,01,19,50,1000.80
2016,03,01,19,51,1000.80
2016,03,01,19,52,1000.80
2016,03,01,19,53,1000.70
2016,03,01,19,54,1000.80
2016,03,01,19,55,1000.80
2016,03,01,19,56,1000.80
2016,03,01,19,57,1000.90
2016,03,01,19,58,1000.90
2016,03,01,19,59,1000.90
2016,03,01,20,00,1001.00
2016,03,01,20,01,1000.90
2016,03,01,20,02,1000.90
2016,03,01,20,03,1000.90
2016,03,01,20,04,1000.90
2016,03,01,20,05,1000.90
2016,03,01,20,06,1000.90
2016,03,01,20,07,1000.80
2016,03,01,20,08,1000.80
2016,03,01,20,09,1000.90
2016,03,01,20,10,1000.90
2016,03,01,20,11,1000.90
2016,03,01,20,12,1001.00
2016,03,01,20,13,1001.00
2016,03,01,20,14,1001.10
2016,03,01,20,15,1001.10
2016,03,01,20,16,1001.10
2016,03,01,20,17,1001.20
2016,03,01,20,18,1001.20
2016,03,01,20,19,1001.20
2016,03,01,20,20,1001.20
2016,03,01,20,21,1001.20
2016,03,01,20,22,1001.20
2016,03,01,20,23,1001.10
2016,03,01,20,24,1001.10
2016,03,01,20,25,1001.20
2016,03,01,20,26,1001.10
2016,03,01,20,27,1001.10
2016,03,01,20,28,1001.10
2016,03,01,20,29,1001.10
2016,03,01,20,30,1001.20
2016,03,01,20,31,1001.10
2016,03,01,20,32,1001.10
2016,03,01,20,33,1001.10
2016,03,01,20,34,1001.10
2016,03,01,20,35,1001.20
2016,03,01,20,36,1001.20
2016,03,01,20,37,1001.30
2016,03,01,20,38,1001.30
2016,03,01,20,39,1001.30
2016,03,01,20,40,1001.30
2016,03,01,20,41,1001.40
2016,03,01,20,42,1001.50
2016,03,01,20,43,1001.60
2016,03,01,20,44,1001.60
2016,03,01,20,45,1001.50
2016,03,01,20,46,1001.60
2016,03,01,20,47,1001.60
2016,03,01,20,48,1001.50
2016,03,01,20,49,1001.50
2016,03,01,20,50,1001.60
2016,03,01,20,51,1001.60
2016,03,01,20,52,1001.60
2016,03,01,20,53,1001.60
2016,03,01,20,54,1001.60
2016,03,01,20,55,1001.60
2016,03,01,20,56,1001.60
2016,03,01,20,57,1001.60
2016,03,01,20,58,1001.60
2016,03,01,20,59,1001.70
2016,03,01,21,00,1001.60
2016,03,01,21,01,1001.70
2016,03,01,21,03,1001.60
2016,03,01,21,04,1001.70
2016,03,01,21,06,1001.70
2016,03,01,21,07,1001.70
2016,03,01,21,08,1001.70
2016,03,01,21,09,1001.70
2016,03,01,21,11,1001.70
2016,03,01,21,12,1001.70
2016,03,01,21,13,1001.70
2016,03,01,21,14,1001.70
2016,03,01,21,16,1001.70
2016,03,01,21,17,1001.70
2016,03,01,21,18,1001.70
2016,03,01,21,19,1001.70
2016,03,01,21,21,1001.70
2016,03,01,21,22,1001.70
2016,03,01,21,23,1001.70
2016,03,01,21,24,1001.70
2016,03,01,21,26,1001.70
2016,03,01,21,27,1001.70
2016,03,01,21,28,1001.70
2016,03,01,21,29,1001.80
2016,03,01,21,31,1001.80
2016,03,01,21,32,1001.80
2016,03,01,21,33,1001.80
2016,03,01,21,34,1001.80
2016,03,01,21,36,1001.80
2016,03,01,21,37,1001.80
2016,03,01,21,38,1001.80
2016,03,01,21,39,1001.80
2016,03,01,21,41,1002.00
2016,03,01,21,42,1002.00
2016,03,01,21,43,1002.00
2016,03,01,21,44,1002.10
2016,03,01,21,46,1002.20
2016,03,01,21,47,1002.20
2016,03,01,21,48,1002.20
2016,03,01,21,49,1002.20
2016,03,01,21,51,1002.30
2016,03,01,21,52,1002.30
2016,03,01,21,53,1002.30
2016,03,01,21,54,1002.30
2016,03,01,21,56,1002.40
2016,03,01,21,57,1002.40
2016,03,01,21,58,1002.50
2016,03,01,21,59,1002.40
2016,03,01,22,01,1002.40
2016,03,01,22,02,1002.40
2016,03,01,22,03,1002.40
2016,03,01,22,04,1002.40
2016,03,01,22,06,1002.50
2016,03,01,22,07,1002.50
2016,03,01,22,08,1002.50
2016,03,01,22,09,1002.50
2016,03,01,22,11,1002.50
2016,03,01,22,12,1002.50
2016,03,01,22,13,1002.50
2016,03,01,22,14,1002.60
2016,03,01,22,15,1002.70
2016,03,01,22,16,1002.70
2016,03,01,22,17,1002.70
2016,03,01,22,18,1002.70
2016,03,01,22,19,1002.70
2016,03,01,22,20,1002.70
2016,03,01,22,21,1002.60
2016,03,01,22,22,1002.60
2016,03,01,22,23,1002.60
2016,03,01,22,24,1002.60
2016,03,01,22,25,1002.70
2016,03,01,22,26,1002.70
2016,03,01,22,27,1002.80
2016,03,01,22,28,1002.80
2016,03,01,22,29,1002.80
2016,03,01,22,30,1002.80
2016,03,01,22,31,1002.80
2016,03,01,22,32,1002.80
2016,03,01,23,29,1003.90